Weather History for Tampa Macdill AFB, FL

Change the Weather History Date:

Thursday, December 6, 2012

  Actual Average Record
Temperature  
Mean Temperature 73 °F -  
Max Temperature 83 °F 73 °F 84 °F (1998)
Min Temperature 63 °F 55 °F 38 °F (2010)
Cooling Degree Days 8    
Growing Degree Days 23 (Base 50)    
Moisture  
Dew Point 64 °F    
Average Humidity 80    
Maximum Humidity 100    
Minimum Humidity 50    
Precipitation  
Precipitation 0.00 in - - ()
Sea Level Pressure  
Sea Level Pressure 30.00 in    
Wind  
Wind Speed 7 mph (East)    
Max Wind Speed 10 mph    
Max Gust Speed -    
Visibility 10 miles    
Events      
Averages and records for this station are not official NWS values.
T = Trace of Precipitation, MM = Missing Value Source: NWS Daily Summary

Daily Weather History Graph

Daily Weather History Graph

Search for Another Location

Airport:

Trip Planner

Search our weather history database for the weather conditions in past years. The results will help you decide how hot, cold, wet, or windy it might be!

Date:

Astronomy

Dec. 06, 2012 Rise Set
Actual Time 7:07 AM EST 5:34 PM EST
Civil Twilight 6:42 AM EST 6:00 PM EST
Nautical Twilight 6:13 AM EST 6:29 PM EST
Astronomical Twilight 5:44 AM EST 6:57 PM EST
Moon No Moon Rise 12:29 PM EST (12/6)
Length of Visible Light 11h 18m
Length of Day
10h 26m
Waning Gibbous, 49% of the Moon is Illuminated
Dec 6
Waning Gibbous
Dec 13
New
Dec 20
First Quarter
Dec 28
Full
Jan 4
Last Quarter

Hourly Weather History & Observations

Time (EST) Temp. Heat Index Dew Point Humidity Pressure Visibility Wind Dir Wind Speed Gust Speed Precip Events Conditions
12:55 AM 65.3 °F - 64.6 °F 98% 30.05 in 10.0 mi East 6.9 mph - N/A   Mostly Cloudy
1:55 AM 65.8 °F - 64.9 °F 97% 30.05 in 10.0 mi East 8.1 mph - N/A   Mostly Cloudy
2:55 AM 64.8 °F - 63.9 °F 97% 30.03 in 10.0 mi East 9.2 mph - N/A   Partly Cloudy
3:55 AM 63.0 °F - 62.6 °F 99% 30.01 in 10.0 mi East 9.2 mph - N/A   Partly Cloudy
4:55 AM 63.7 °F - 63.7 °F 100% 30.00 in 10.0 mi East 8.1 mph - N/A   Overcast
5:55 AM 63.5 °F - 63.3 °F 99% 30.00 in 10.0 mi East 10.4 mph - N/A   Mostly Cloudy
6:55 AM 63.5 °F - 63.5 °F 100% 30.02 in 10.0 mi East 9.2 mph - N/A   Mostly Cloudy
7:55 AM 64.6 °F - 64.2 °F 99% 30.04 in 10.0 mi East 5.8 mph - N/A   Mostly Cloudy
8:55 AM 67.3 °F - 65.1 °F 93% 30.05 in 10.0 mi East 8.1 mph - N/A   Scattered Clouds
9:55 AM 73.8 °F - 65.5 °F 75% 30.06 in 10.0 mi East 10.4 mph - N/A   Partly Cloudy
10:55 AM 76.8 °F - 65.3 °F 67% 30.05 in 10.0 mi East 6.9 mph - N/A   Partly Cloudy
11:55 AM 79.0 °F - 65.1 °F 62% 30.01 in 10.0 mi East 6.9 mph - N/A   Clear
12:55 PM 81.3 °F 82.9 °F 64.2 °F 56% 29.98 in 10.0 mi East 5.8 mph - N/A   Clear
1:55 PM 83.7 °F 84.7 °F 63.0 °F 50% 29.96 in 10.0 mi East 6.9 mph - N/A   Mostly Cloudy
2:55 PM 82.2 °F 83.2 °F 62.2 °F 51% 29.94 in 10.0 mi East 5.8 mph - N/A   Scattered Clouds
3:55 PM 80.8 °F 81.9 °F 62.1 °F 53% 29.94 in 10.0 mi East 6.9 mph - N/A   Partly Cloudy
4:55 PM 77.7 °F - 61.7 °F 58% 29.94 in 10.0 mi Calm Calm - N/A   Partly Cloudy
5:55 PM 73.2 °F - 62.1 °F 68% 29.96 in 10.0 mi Calm Calm - N/A   Overcast
6:55 PM 72.7 °F - 63.3 °F 72% 29.97 in 10.0 mi East 3.5 mph - N/A   Overcast
7:55 PM 71.1 °F - 63.7 °F 77% 29.97 in 10.0 mi ENE 5.8 mph - N/A   Overcast
8:55 PM 70.5 °F - 63.7 °F 79% 29.99 in 10.0 mi East 10.4 mph - N/A   Scattered Clouds
9:55 PM 70.0 °F - 64.6 °F 83% 29.99 in 10.0 mi ESE 9.2 mph - N/A   Clear
10:55 PM 68.5 °F - 64.6 °F 87% 29.99 in 10.0 mi East 8.1 mph - N/A   Clear
11:55 PM 66.0 °F - 63.9 °F 93% 29.98 in 10.0 mi East 8.1 mph - N/A   Clear